User: anonymous   Login
Location: Azat
(46.0765°N, 1.7600°E)
Time: 17:08:45
(UTC+00:00)
Language:

FALCON 9 DEB - Orbit

View from above orbital plane
View from above orbital plane
View from above satellite
View from above satellite

Ground track
Ground track

The orbit data is extracted from the following two-line orbital elements,

1 44295U 19029BN  20184.90717248 +.00000988 +00000-0 +30796-4 0  9992
2 44295 053.0032 046.4589 0010797 111.9509 248.2644 15.43734482063881
Epoch (UTC): 02 July 2020 21:46:19
Eccentricity: 0.0010797
inclination: 53.0032°
perigee height: 428 km
apogee height: 442 km
right ascension of ascending node: 46.4589°
argument of perigee: 111.9509°
revolutions per day: 15.43734482
mean anomaly at epoch: 248.2644°
orbit number at epoch: 6388

The dashed part of the orbit path shows where the satellite is in the earth's shadow,  

DLR